"startDT [UTC]","vpos","CH4 [ppm]","stdev(CH4) [ppm]","CO2 [ppm]","stdev(CO2) [ppm]","H2O_reported [%]","stdev(H2O_reported)","CavityPressure [torr]","CavityTemp [C]","OutletValve","CH4_dry [ppm]","CO2_dry [ppm]","DasTemp [C]","EtalonTemp [C]","WarmBoxTemp [C]","MPVPosition","T_ECpre [C]","T_EC1 [C]","T_EC2 [C]","p_inlet [hPa]","p_in [hPa]","p_out [hPa]","T_inlet [C]","RH_inlet [%]","dwpt_inlet [C]","T_vent [C]","RH_vent [%]","dwpt_vent [C]","flow_vent [l min-1]","flow_inlet [l min-1]","dwpt_sample [C]","T_room [C]"
2015-07-20 00:00:00,0.0,1.88294,0.00062,385.274,0.291,1.0479,0.0063,140.004,45.000,34326.87921,1.90301,390.325,34.018,45.068,45.000,0.00,0.10,-272.74,-272.79,-9,998,-7,24.7,25.8,3.8,24.5,26.7,4.1,5.73,1.86,2.7,28.4
2015-07-20 00:01:00,0.0,1.88355,0.00045,384.965,0.235,1.0507,0.0055,140.001,45.000,34323.96926,1.90369,389.977,34.028,45.068,45.000,0.00,0.10,-272.74,-272.80,-9,998,-7,24.7,26.0,3.9,24.5,26.8,4.2,5.73,1.88,2.7,28.4
2015-07-20 00:02:00,0.0,1.88288,0.00103,385.159,0.339,1.0511,0.0028,140.000,45.000,34324.57315,1.90311,390.183,34.023,45.068,45.000,0.00,0.10,-272.73,-272.80,-9,998,-7,24.7,26.0,3.9,24.5,26.8,4.2,5.73,1.91,2.6,28.3
2015-07-20 00:03:00,0.0,1.88196,0.00047,385.476,0.147,1.0451,0.0039,140.002,45.000,34327.15633,1.90191,390.506,34.019,45.068,45.000,0.00,0.10,-272.73,-272.79,-9,998,-7,24.7,25.8,3.8,24.5,26.7,4.1,5.73,1.93,2.7,28.4
2015-07-20 00:04:00,0.0,1.88220,0.00056,385.307,0.141,1.0517,0.0053,140.002,45.000,34325.74375,1.90235,390.344,34.017,45.068,45.000,0.00,0.10,-272.74,-272.80,-9,998,-7,24.7,26.1,4.0,24.5,26.8,4.2,5.73,1.93,2.7,28.4
2015-07-20 00:05:00,0.0,1.88245,0.00094,384.906,0.272,1.0679,0.0110,139.998,45.000,34322.96349,1.90300,390.017,34.034,45.068,45.000,0.00,0.10,-272.74,-272.81,-9,998,-7,24.7,26.6,4.3,24.5,27.2,4.4,5.73,1.91,2.7,28.4
2015-07-20 00:06:00,0.0,1.88041,0.00062,385.630,0.157,1.0743,0.0131,140.003,45.000,34328.67483,1.90098,390.783,34.058,45.068,45.000,0.00,0.10,-272.73,-272.80,-9,998,-7,24.7,26.5,4.2,24.5,27.5,4.6,5.73,1.88,2.7,28.4
2015-07-20 00:07:00,0.0,1.88097,0.00056,385.768,0.098,1.0378,0.0039,140.004,45.000,34326.14525,1.90086,390.746,34.063,45.067,45.000,0.00,0.10,-272.74,-272.80,-9,998,-7,24.7,25.6,3.7,24.5,26.6,4.0,5.73,1.86,2.7,28.5
2015-07-20 00:08:00,0.0,1.88083,0.00066,385.762,0.221,1.0375,0.0019,139.996,45.000,34321.45821,1.90064,390.750,34.069,45.067,45.000,0.00,0.10,-272.73,-272.81,-9,998,-7,24.7,25.6,3.7,24.5,26.4,4.0,5.73,1.85,2.7,28.4
2015-07-20 00:09:00,0.0,1.88068,0.00060,385.627,0.174,1.0462,0.0036,139.999,45.000,34322.84465,1.90079,390.634,34.097,45.067,45.000,0.00,0.10,-272.73,-272.80,-9,998,-7,24.7,25.9,3.9,24.5,26.6,4.1,5.73,1.86,2.7,28.4
2015-07-20 00:10:00,0.0,1.88079,0.00044,385.583,0.192,1.0476,0.0030,140.002,45.000,34322.65724,1.90078,390.619,34.096,45.067,45.000,0.00,0.10,-272.74,-272.79,-9,998,-7,24.7,25.9,3.9,24.5,26.7,4.1,5.73,1.88,2.7,28.4
2015-07-20 00:11:00,0.0,1.88108,0.00027,385.165,0.155,1.0559,0.0049,140.000,45.000,34323.77572,1.90130,390.233,34.089,45.067,44.999,0.00,0.10,-272.74,-272.80,-9,998,-7,24.7,26.2,4.1,24.5,26.9,4.2,5.73,1.91,2.7,28.4
2015-07-20 00:12:00,0.0,1.88090,0.00048,385.186,0.279,1.0739,0.0045,140.002,45.000,34321.90543,1.90144,390.320,34.079,45.067,45.000,0.00,0.10,-272.74,-272.80,-9,998,-7,24.7,26.6,4.3,24.5,27.4,4.5,5.73,1.93,2.7,28.4
2015-07-20 00:13:00,0.0,1.88050,0.00033,385.533,0.136,1.0634,0.0043,139.997,45.000,34323.45894,1.90094,390.637,34.073,45.067,45.000,0.00,0.10,-272.73,-272.79,-9,998,-7,24.7,26.3,4.1,24.5,27.2,4.4,5.73,1.93,2.7,28.4
2015-07-20 00:14:00,0.0,1.88120,0.00045,385.608,0.129,1.0545,0.0023,140.000,45.000,34322.78971,1.90137,390.671,34.073,45.068,45.000,0.00,0.10,-272.74,-272.80,-9,998,-7,24.8,26.1,4.0,24.5,26.9,4.2,5.73,1.91,2.7,28.4
2015-07-20 00:15:00,0.0,1.88095,0.00061,385.794,0.108,1.0545,0.0032,139.998,45.000,34321.90586,1.90110,390.853,34.063,45.068,45.000,0.00,0.10,-272.74,-272.80,-9,998,-7,24.7,26.1,3.9,24.5,26.9,4.2,5.73,1.88,2.7,28.4
2015-07-20 00:16:00,0.0,1.88085,0.00052,385.966,0.087,1.0457,0.0042,139.998,45.000,34320.09248,1.90093,390.980,34.061,45.068,45.000,0.00,0.10,-272.74,-272.79,-9,998,-7,24.7,25.8,3.8,24.5,26.7,4.1,5.73,1.86,2.7,28.5
2015-07-20 00:17:00,0.0,1.88155,0.00051,385.651,0.200,1.0420,0.0030,140.000,45.000,34321.66675,1.90144,390.653,34.062,45.068,45.000,0.00,0.10,-272.73,-272.80,-9,998,-7,24.7,25.8,3.8,24.5,26.6,4.0,5.73,1.85,2.7,28.5
2015-07-20 00:18:00,0.0,1.88165,0.00044,385.425,0.094,1.0491,0.0030,140.002,45.000,34324.35575,1.90178,390.466,34.063,45.068,45.000,0.00,0.10,-272.74,-272.81,-9,998,-7,24.7,26.0,3.9,24.5,26.8,4.2,5.73,1.87,2.7,28.5
2015-07-20 00:19:00,0.0,1.88125,0.00048,385.345,0.302,1.0571,0.0026,139.999,45.000,34321.88914,1.90148,390.423,34.069,45.068,45.000,0.00,0.10,-272.73,-272.80,-9,998,-7,24.7,26.2,4.0,24.5,27.0,4.3,5.73,1.89,2.7,28.4
2015-07-20 00:20:00,0.0,1.88181,0.00049,385.034,0.296,1.0612,0.0031,140.001,45.000,34320.35552,1.90209,390.119,34.065,45.068,45.000,0.00,0.10,-272.73,-272.79,-9,998,-7,24.7,26.3,4.1,24.5,27.1,4.3,5.73,1.92,2.7,28.4
2015-07-20 00:21:00,0.0,1.88117,0.00056,385.171,0.298,1.0678,0.0037,139.998,45.000,34320.87835,1.90168,390.285,34.067,45.068,45.000,0.00,0.10,-272.74,-272.80,-9,998,-7,24.7,26.5,4.2,24.5,27.3,4.4,5.73,1.93,2.7,28.4
2015-07-20 00:22:00,0.0,1.88165,0.00046,384.888,0.351,1.0710,0.0028,139.997,45.000,34321.10465,1.90219,390.029,34.091,45.068,45.000,0.00,0.10,-272.74,-272.80,-9,998,-7,24.7,26.6,4.2,24.5,27.4,4.5,5.73,1.92,2.7,28.4
2015-07-20 00:23:00,0.0,1.88197,0.00052,384.485,0.180,1.0793,0.0039,140.000,45.000,34323.88435,1.90264,389.665,34.075,45.067,45.000,0.00,0.10,-272.73,-272.80,-9,998,-7,24.7,26.8,4.4,24.5,27.6,4.6,5.73,1.90,2.7,28.4
2015-07-20 00:24:00,0.0,1.88170,0.00067,384.801,0.275,1.0838,0.0040,140.001,45.000,34323.74377,1.90247,389.985,34.069,45.068,45.000,0.00,0.10,-272.73,-272.80,-9,998,-7,24.8,26.9,4.4,24.5,27.8,4.7,5.73,1.87,2.7,28.4
2015-07-20 00:25:00,0.0,1.88182,0.00060,384.633,0.366,1.0807,0.0026,140.001,45.000,34323.71113,1.90253,389.799,34.064,45.068,45.000,0.00,0.10,-272.74,-272.80,-9,998,-7,24.8,26.8,4.4,24.5,27.6,4.6,5.73,1.86,2.7,28.4
2015-07-20 00:26:00,0.0,1.88216,0.00059,384.939,0.319,1.0870,0.0038,139.998,45.000,34324.25275,1.90307,390.142,34.069,45.068,45.000,0.00,0.10,-272.73,-272.79,-9,998,-7,24.7,26.9,4.4,24.5,27.8,4.7,5.73,1.85,2.7,28.4
2015-07-20 00:27:00,0.0,1.88234,0.00100,385.346,0.267,1.0672,0.0113,140.007,45.000,34325.91962,1.90264,390.486,34.078,45.068,45.000,0.00,0.10,-272.74,-272.80,-9,998,-7,24.7,26.3,4.1,24.5,27.4,4.5,5.73,1.87,2.7,28.4
2015-07-20 00:28:00,0.0,1.88284,0.00051,385.179,0.246,1.0588,0.0043,140.001,45.000,34323.51936,1.90323,390.243,34.091,45.068,45.000,0.00,0.10,-272.74,-272.80,-9,998,-7,24.7,26.2,4.1,24.5,27.0,4.3,5.73,1.89,2.7,28.4
2015-07-20 00:29:00,0.0,1.88304,0.00059,385.194,0.147,1.0574,0.0021,140.003,45.000,34325.64691,1.90330,390.267,34.105,45.067,45.000,0.00,0.10,-272.74,-272.80,-9,998,-7,24.7,26.2,4.0,24.5,27.0,4.3,5.73,1.92,2.7,28.4
2015-07-20 00:30:00,0.0,1.88365,0.00053,385.192,0.182,1.0581,0.0020,140.002,45.000,34324.45969,1.90394,390.253,34.118,45.067,45.000,0.00,0.10,-272.73,-272.79,-9,998,-7,24.7,26.2,4.0,24.5,27.0,4.3,5.73,1.92,2.7,28.4
2015-07-20 00:31:00,0.0,1.88346,0.00070,385.432,0.102,1.0498,0.0075,140.000,45.000,34325.13438,1.90357,390.472,34.121,45.067,45.000,0.00,0.10,-272.74,-272.80,-9,998,-7,24.7,25.9,3.9,24.5,26.8,4.2,5.73,1.92,2.7,28.4
2015-07-20 00:32:00,0.0,1.88371,0.00058,385.261,0.238,1.0459,0.0017,139.998,45.000,34323.62477,1.90375,390.279,34.084,45.067,45.000,0.00,0.10,-272.74,-272.80,-9,998,-7,24.7,25.9,3.8,24.5,26.7,4.1,5.73,1.90,2.7,28.4
2015-07-20 00:33:00,0.0,1.88321,0.00048,385.391,0.158,1.0508,0.0043,140.003,45.000,34325.35682,1.90340,390.420,34.071,45.067,45.000,0.00,0.10,-272.73,-272.80,-9,998,-7,24.7,26.0,3.9,24.5,26.8,4.1,5.73,1.87,2.7,28.4
2015-07-20 00:34:00,0.0,1.88413,0.00052,384.945,0.203,1.0516,0.0050,140.000,45.000,34326.23664,1.90422,390.007,34.064,45.068,45.000,0.00,0.10,-272.73,-272.80,-9,998,-7,24.8,26.1,4.0,24.5,26.8,4.2,5.73,1.86,2.7,28.4
2015-07-20 00:35:00,0.0,1.88393,0.00050,384.807,0.095,1.0738,0.0053,139.999,45.000,34325.57539,1.90459,389.945,34.077,45.068,45.000,0.00,0.10,-272.74,-272.80,-9,998,-7,24.7,26.7,4.3,24.5,27.4,4.5,5.73,1.86,2.7,28.4
2015-07-20 00:36:00,0.0,1.88304,0.00054,384.743,0.125,1.0836,0.0040,140.002,45.000,34326.14794,1.90381,389.925,34.079,45.068,45.000,0.00,0.10,-272.73,-272.80,-9,998,-7,24.7,26.9,4.4,24.5,27.7,4.6,5.73,1.88,2.7,28.4
2015-07-20 00:37:00,0.0,1.88215,0.00054,385.176,0.200,1.0851,0.0076,139.999,45.000,34325.33049,1.90301,390.381,34.084,45.068,45.000,0.00,0.10,-272.74,-272.80,-9,998,-7,24.7,26.8,4.4,24.5,27.8,4.7,5.73,1.90,2.7,28.4
2015-07-20 00:38:00,0.0,1.88221,0.00041,385.367,0.081,1.0620,0.0025,140.002,45.000,34324.27475,1.90257,390.458,34.120,45.068,45.000,0.00,0.10,-272.74,-272.80,-9,998,-7,24.8,26.2,4.1,24.5,27.2,4.4,5.73,1.92,2.7,28.4
2015-07-20 00:39:00,0.0,1.88215,0.00045,385.462,0.145,1.0503,0.0058,140.003,45.000,34327.96117,1.90226,390.507,34.123,45.068,45.000,0.00,0.10,-272.74,-272.80,-9,998,-7,24.8,25.9,3.9,24.5,26.8,4.2,5.73,1.93,2.7,28.4
2015-07-20 00:40:00,0.0,1.88173,0.00039,385.463,0.111,1.0533,0.0029,140.000,45.000,34327.23009,1.90197,390.505,34.121,45.067,45.000,0.00,0.10,-272.74,-272.79,-9,998,-7,24.8,26.0,4.0,24.5,26.8,4.2,5.73,1.92,2.7,28.5
2015-07-20 00:41:00,0.0,1.88166,0.00040,385.561,0.057,1.0464,0.0018,140.003,45.000,34329.03505,1.90167,390.579,34.124,45.067,45.000,0.00,0.10,-272.74,-272.80,-9,998,-7,24.8,25.8,3.9,24.5,26.7,4.1,5.73,1.89,2.7,28.5
2015-07-20 00:42:00,0.0,1.88168,0.00046,385.442,0.076,1.0472,0.0042,140.000,45.000,34327.79757,1.90178,390.468,34.122,45.067,45.000,0.00,0.10,-272.74,-272.80,-9,998,-7,24.8,25.9,3.9,24.5,26.7,4.1,5.73,1.87,2.7,28.5
2015-07-20 00:43:00,0.0,1.88187,0.00046,385.467,0.156,1.0509,0.0031,140.001,45.000,34326.68977,1.90196,390.514,34.122,45.067,45.000,0.00,0.10,-272.74,-272.80,-9,998,-7,24.8,26.0,3.9,24.5,26.8,4.2,5.73,1.85,2.7,28.5
2015-07-20 00:44:00,0.0,1.88203,0.00047,385.227,0.115,1.0548,0.0063,140.003,45.000,34327.25290,1.90226,390.276,34.114,45.067,45.000,0.00,0.10,-272.73,-272.80,-9,998,-7,24.8,26.2,4.0,24.5,26.9,4.2,5.73,1.85,2.7,28.5
2015-07-20 00:45:00,0.0,1.88141,0.00057,385.417,0.138,1.0587,0.0060,140.000,45.000,34325.91049,1.90171,390.496,34.114,45.068,45.000,0.00,0.10,-272.73,-272.80,-9,998,-7,24.8,26.1,4.0,24.5,27.1,4.3,5.73,1.87,2.7,28.5
2015-07-20 00:46:00,0.0,1.88177,0.00032,384.910,0.255,1.0510,0.0071,139.998,45.000,34324.84083,1.90186,389.965,34.096,45.068,45.000,0.00,0.10,-272.73,-272.80,-9,998,-7,24.7,26.0,4.0,24.5,26.8,4.2,5.73,1.89,2.7,28.5
2015-07-20 00:47:00,0.0,1.88064,0.00080,385.144,0.332,1.0718,0.0053,140.001,45.000,34326.60975,1.90129,390.253,34.072,45.068,45.000,0.00,0.10,-272.73,-272.80,-9,998,-7,24.8,26.5,4.2,24.5,27.3,4.5,5.73,1.92,2.7,28.4
2015-07-20 00:48:00,0.0,1.87985,0.00052,385.354,0.266,1.0500,0.0066,140.002,45.000,34328.57850,1.89995,390.409,34.064,45.068,45.000,0.00,0.10,-272.74,-272.81,-9,998,-7,24.8,25.9,3.9,24.5,26.8,4.2,5.73,1.93,2.7,28.4
2015-07-20 00:49:00,0.0,1.87993,0.00045,385.354,0.189,1.0520,0.0043,140.002,45.000,34329.24300,1.90003,390.383,34.063,45.068,45.000,0.00,0.10,-272.74,-272.80,-9,998,-7,24.8,26.0,3.9,24.5,26.8,4.2,5.73,1.92,2.7,28.4
2015-07-20 00:50:00,0.0,1.88037,0.00029,385.448,0.118,1.0515,0.0020,140.003,45.000,34327.26504,1.90048,390.490,34.061,45.068,45.000,0.00,0.10,-272.73,-272.79,-9,998,-7,24.8,26.0,3.9,24.5,26.8,4.2,5.73,1.91,2.7,28.4
2015-07-20 00:51:00,0.0,1.88066,0.00046,385.238,0.254,1.0474,0.0039,140.001,45.000,34328.03146,1.90070,390.274,34.059,45.068,45.000,0.00,0.10,-272.74,-272.80,-9,998,-7,24.8,25.9,3.9,24.5,26.7,4.1,5.73,1.88,2.7,28.4
2015-07-20 00:52:00,0.0,1.88014,0.00046,384.945,0.189,1.0665,0.0050,140.000,45.000,34327.35165,1.90057,390.054,34.055,45.068,45.000,0.00,0.10,-272.75,-272.80,-9,998,-7,24.8,26.5,4.2,24.5,27.2,4.4,5.73,1.86,2.7,28.5
2015-07-20 00:53:00,0.0,1.88077,0.00036,384.531,0.193,1.0769,0.0060,139.998,45.000,34327.82596,1.90139,389.705,34.054,45.068,45.000,0.00,0.10,-272.73,-272.80,-9,998,-7,24.8,26.8,4.4,24.5,27.5,4.5,5.73,1.85,2.7,28.5
2015-07-20 00:54:00,0.0,1.88020,0.00045,383.831,0.297,1.0979,0.0084,139.999,45.000,34327.92877,1.90123,389.073,34.062,45.068,45.000,0.00,0.10,-272.73,-272.80,-9,998,-7,24.8,27.4,4.7,24.5,28.0,4.8,5.73,1.86,2.7,28.5
2015-07-20 00:55:00,0.0,1.87918,0.00095,384.998,0.388,1.1005,0.0204,140.000,45.000,34328.36116,1.90031,390.262,34.061,45.068,45.000,0.00,0.10,-272.74,-272.80,-9,998,-7,24.8,27.1,4.6,24.5,28.3,5.0,5.73,1.88,2.7,28.5
2015-07-20 00:56:00,0.0,1.88028,0.00058,384.544,0.460,1.0706,0.0062,139.999,45.000,34324.58001,1.90080,389.691,34.060,45.068,45.000,0.00,0.10,-272.74,-272.79,-9,998,-7,24.8,26.6,4.3,24.5,27.4,4.5,5.73,1.91,2.7,28.4
2015-07-20 00:57:00,0.0,1.88002,0.00061,384.746,0.185,1.0954,0.0074,139.999,45.000,34326.56343,1.90099,389.985,34.061,45.068,45.000,0.00,0.10,-272.73,-272.79,-9,998,-7,24.7,27.2,4.6,24.5,28.0,4.8,5.73,1.92,2.7,28.4
2015-07-20 00:58:00,0.0,1.88075,0.00061,384.137,0.342,1.0927,0.0053,139.998,45.000,34328.67589,1.90165,389.394,34.057,45.068,45.000,0.00,0.10,-272.74,-272.80,-9,998,-7,24.8,27.2,4.6,24.5,28.0,4.8,5.73,1.92,2.7,28.5
2015-07-20 00:59:00,0.0,1.87995,0.00074,384.338,0.431,1.1131,0.0058,140.000,45.000,34327.74727,1.90135,389.643,34.059,45.068,45.000,0.00,0.10,-272.74,-272.80,-9,998,-7,24.8,27.7,4.9,24.5,28.5,5.0,5.73,1.91,2.7,28.5
2015-07-20 01:00:00,0.0,1.87978,0.00058,384.790,0.356,1.0988,0.0038,140.001,45.000,34328.98635,1.90082,390.044,34.065,45.068,45.000,0.00,0.10,-272.73,-272.80,-9,998,-7,24.8,27.2,4.6,24.5,28.2,4.9,5.73,1.89,2.7,28.5
2015-07-20 01:01:00,0.0,1.87979,0.00055,384.987,0.253,1.0721,0.0102,139.998,45.000,34327.58735,1.90035,390.144,34.066,45.067,45.000,0.00,0.10,-272.74,-272.80,-9,998,-7,24.8,26.5,4.2,24.5,27.5,4.5,5.73,1.86,2.7,28.5
2015-07-20 01:02:00,0.0,1.87985,0.00062,385.146,0.275,1.0810,0.0064,139.998,45.000,34326.39360,1.90057,390.318,34.092,45.068,45.000,0.00,0.10,-272.74,-272.81,-9,998,-7,24.8,26.7,4.3,24.5,27.6,4.6,5.73,1.85,2.7,28.4
2015-07-20 01:03:00,0.0,1.88098,0.00043,385.237,0.203,1.0564,0.0032,140.003,45.000,34328.23056,1.90116,390.314,34.116,45.067,45.000,0.00,0.10,-272.73,-272.80,-9,998,-7,24.8,26.1,4.0,24.5,27.0,4.3,5.73,1.86,2.7,28.4
2015-07-20 01:04:00,0.0,1.88095,0.00045,384.536,0.433,1.0679,0.0061,139.998,45.000,34327.02621,1.90138,389.668,34.101,45.067,45.000,0.00,0.10,-272.73,-272.80,-9,998,-7,24.8,26.5,4.2,24.5,27.2,4.4,5.73,1.88,2.7,28.4
2015-07-20 01:05:00,0.0,1.88049,0.00048,384.805,0.326,1.0891,0.0059,140.002,45.000,34328.64880,1.90134,390.008,34.091,45.067,45.000,0.00,0.10,-272.74,-272.80,-9,998,-7,24.8,27.0,4.5,24.5,27.8,4.7,5.73,1.90,2.7,28.4
2015-07-20 01:06:00,0.0,1.88052,0.00060,384.739,0.187,1.0818,0.0068,140.000,45.000,34325.65711,1.90130,389.923,34.107,45.067,45.000,0.00,0.10,-272.74,-272.80,-9,998,-7,24.8,26.9,4.4,24.5,27.6,4.6,5.73,1.92,2.7,28.5
2015-07-20 01:07:00,0.0,1.87966,0.00041,384.842,0.357,1.0909,0.0018,140.001,45.000,34327.25761,1.90058,390.056,34.121,45.067,45.000,0.00,0.10,-272.74,-272.80,-9,998,-7,24.8,27.1,4.5,24.5,27.9,4.8,5.73,1.92,2.7,28.5
2015-07-20 01:08:00,0.0,1.88018,0.00071,384.761,0.199,1.0826,0.0048,140.000,45.000,34327.98677,1.90085,389.972,34.109,45.067,45.000,0.00,0.10,-272.74,-272.80,-9,998,-7,24.8,26.8,4.4,24.5,27.7,4.7,5.73,1.91,2.7,28.5
2015-07-20 01:09:00,0.0,1.87987,0.00050,384.416,0.151,1.0997,0.0079,140.000,45.000,34326.28236,1.90102,389.667,34.122,45.067,45.000,0.00,0.10,-272.74,-272.80,-9,997,-7,24.8,27.4,4.7,24.5,28.1,4.8,5.73,1.89,2.7,28.5
2015-07-20 01:10:00,0.0,1.87997,0.00060,385.041,0.145,1.0925,0.0100,140.000,45.000,34324.59451,1.90087,390.284,34.122,45.067,45.000,0.00,0.10,-272.73,-272.79,-9,998,-7,24.8,27.0,4.5,24.5,28.0,4.8,5.73,1.87,2.7,28.4
2015-07-20 01:11:00,0.0,1.88018,0.00050,384.603,0.304,1.0858,0.0055,140.002,45.000,34325.19066,1.90098,389.821,34.119,45.067,45.000,0.00,0.10,-272.73,-272.80,-9,998,-7,24.8,27.0,4.5,24.5,27.8,4.7,5.73,1.86,2.7,28.4
2015-07-20 01:12:00,0.0,1.87977,0.00045,384.429,0.214,1.0980,0.0062,139.998,45.000,34323.51981,1.90084,389.685,34.116,45.068,45.000,0.00,0.10,-272.74,-272.80,-9,998,-7,24.8,27.3,4.7,24.5,28.1,4.9,5.73,1.86,2.7,28.4
2015-07-20 01:13:00,0.0,1.87924,0.00053,384.570,0.255,1.1073,0.0049,140.004,45.000,34324.84327,1.90055,389.864,34.113,45.068,45.000,0.00,0.10,-272.74,-272.80,-9,997,-7,24.8,27.5,4.7,24.5,28.4,5.0,5.73,1.87,2.7,28.4
2015-07-20 01:14:00,0.0,1.87852,0.00053,384.759,0.202,1.0993,0.0041,140.001,45.000,34326.22188,1.89953,390.041,34.087,45.068,45.000,0.00,0.10,-272.73,-272.80,-9,998,-7,24.8,27.2,4.6,24.5,28.2,4.9,5.73,1.89,2.7,28.5
2015-07-20 01:15:00,0.0,1.87869,0.00046,384.923,0.296,1.0875,0.0023,140.001,45.000,34326.12370,1.89957,390.124,34.091,45.068,45.000,0.00,0.10,-272.74,-272.80,-9,998,-7,24.8,27.0,4.5,24.5,27.9,4.7,5.73,1.91,2.7,28.5
2015-07-20 01:16:00,0.0,1.87875,0.00030,384.868,0.276,1.0819,0.0048,140.002,45.000,34326.36372,1.89941,390.070,34.115,45.068,45.000,0.00,0.10,-272.74,-272.80,-9,998,-7,24.8,26.7,4.4,24.5,27.7,4.6,5.73,1.92,2.7,28.5
2015-07-20 01:17:00,0.0,1.87850,0.00074,384.084,0.134,1.0981,0.0127,139.997,45.000,34324.08552,1.89962,389.347,34.102,45.068,45.000,0.00,0.10,-272.73,-272.80,-9,997,-7,24.8,27.5,4.8,24.5,28.0,4.8,5.73,1.92,2.7,28.5
2015-07-20 01:18:00,0.0,1.87802,0.00063,385.125,0.241,1.1083,0.0172,139.998,45.000,34326.20185,1.89917,390.429,34.101,45.068,45.000,0.00,0.10,-272.73,-272.80,-9,998,-7,24.8,27.3,4.7,24.5,28.5,5.0,5.73,1.92,2.7,28.4
2015-07-20 01:19:00,0.0,1.87903,0.00041,385.116,0.119,1.0742,0.0036,139.998,45.000,34323.96620,1.89963,390.261,34.085,45.068,45.000,0.00,0.10,-272.75,-272.80,-9,998,-7,24.8,26.6,4.3,24.5,27.5,4.5,5.73,1.89,2.7,28.4
2015-07-20 01:20:00,0.0,1.87879,0.00037,385.076,0.196,1.0781,0.0014,140.002,45.000,34326.28929,1.89944,390.240,34.083,45.068,45.000,0.00,0.10,-272.73,-272.79,-9,998,-7,24.7,26.7,4.3,24.5,27.5,4.6,5.73,1.86,2.7,28.5
2015-07-20 01:21:00,0.0,1.87857,0.00047,384.960,0.351,1.0798,0.0033,140.000,45.000,34326.44684,1.89923,390.138,34.092,45.068,45.000,0.00,0.10,-272.74,-272.79,-9,998,-7,24.8,26.8,4.4,24.5,27.6,4.6,5.73,1.86,2.7,28.4
2015-07-20 01:22:00,0.0,1.87885,0.00059,385.218,0.112,1.0825,0.0083,140.003,45.000,34326.18394,1.89957,390.421,34.110,45.068,45.000,0.00,0.10,-272.74,-272.80,-9,998,-7,24.8,26.7,4.4,24.5,27.7,4.6,5.73,1.86,2.7,28.5
2015-07-20 01:23:00,0.0,1.87885,0.00032,384.714,0.239,1.0847,0.0093,139.996,45.000,34325.70699,1.89958,389.904,34.103,45.068,45.000,0.00,0.10,-272.73,-272.80,-9,997,-7,24.8,27.0,4.5,24.5,27.7,4.6,5.73,1.87,2.7,28.5
2015-07-20 01:24:00,0.0,1.87885,0.00039,384.874,0.297,1.1006,0.0021,140.005,45.000,34326.08506,1.89994,390.153,34.112,45.068,45.000,0.00,0.10,-272.73,-272.80,-9,998,-7,24.8,27.3,4.7,24.5,28.1,4.9,5.73,1.89,2.7,28.5
2015-07-20 01:25:00,0.0,1.87911,0.00047,384.757,0.356,1.0926,0.0036,139.997,45.000,34326.41278,1.90000,390.011,34.122,45.068,45.000,0.00,0.10,-272.73,-272.80,-9,998,-7,24.8,27.1,4.6,24.5,28.0,4.8,5.73,1.91,2.7,28.5
2015-07-20 01:26:00,0.0,1.87791,0.00050,384.967,0.219,1.1060,0.0070,140.001,45.000,34325.67998,1.89917,390.266,34.123,45.067,45.000,0.00,0.10,-272.74,-272.80,-9,998,-7,24.8,27.5,4.8,24.5,28.3,4.9,5.73,1.92,2.7,28.5
2015-07-20 01:27:00,0.0,1.87795,0.00043,384.751,0.129,1.1066,0.0067,139.999,45.000,34325.16792,1.89915,390.053,34.125,45.067,45.000,0.00,0.10,-272.73,-272.80,-9,997,-7,24.8,27.6,4.8,24.5,28.3,5.0,5.73,1.92,2.7,28.5
2015-07-20 01:28:00,0.0,1.87794,0.00032,384.555,0.180,1.1192,0.0044,140.003,45.000,34323.50640,1.89936,389.922,34.125,45.067,45.000,0.00,0.10,-272.73,-272.80,-9,997,-7,24.8,27.9,5.0,24.5,28.6,5.1,5.73,1.91,2.7,28.4
2015-07-20 01:29:00,0.0,1.87752,0.00061,385.078,0.315,1.1177,0.0074,139.999,45.000,34323.97807,1.89895,390.435,34.131,45.068,45.000,0.00,0.10,-272.74,-272.80,-9,997,-7,24.8,27.6,4.8,24.5,28.7,5.1,5.73,1.89,2.7,28.5
2015-07-20 01:30:00,0.0,1.87832,0.00060,385.144,0.145,1.0871,0.0045,140.001,45.000,34326.23813,1.89912,390.365,34.131,45.068,45.000,0.00,0.10,-272.74,-272.80,-9,998,-7,24.8,26.9,4.5,24.5,27.9,4.7,5.73,1.87,2.7,28.5
2015-07-20 01:31:00,0.0,1.87814,0.00056,384.934,0.299,1.0963,0.0022,139.999,45.000,34326.35562,1.89912,390.212,34.126,45.068,45.000,0.00,0.10,-272.74,-272.80,-9,998,-7,24.8,27.2,4.6,24.5,28.0,4.8,5.73,1.86,2.7,28.5
2015-07-20 01:32:00,0.0,1.87788,0.00045,385.093,0.254,1.1059,0.0041,140.000,45.000,34324.14226,1.89907,390.379,34.124,45.068,45.000,0.00,0.10,-272.74,-272.80,-9,998,-7,24.8,27.4,4.7,24.5,28.3,4.9,5.73,1.86,2.7,28.5
2015-07-20 01:33:00,0.0,1.87810,0.00027,385.259,0.103,1.0896,0.0034,139.999,45.000,34324.77687,1.89896,390.489,34.124,45.068,45.000,0.00,0.10,-272.73,-272.80,-9,997,-7,24.8,27.0,4.5,24.5,27.9,4.8,5.73,1.87,2.7,28.5
2015-07-20 01:34:00,0.0,1.87806,0.00051,384.972,0.182,1.0941,0.0056,140.002,45.000,34325.82470,1.89898,390.230,34.124,45.068,45.000,0.00,0.10,-272.73,-272.80,-9,997,-7,24.8,27.2,4.6,24.5,28.0,4.8,5.73,1.89,2.7,28.5
2015-07-20 01:35:00,0.0,1.87806,0.00049,385.049,0.158,1.1020,0.0034,140.003,45.000,34326.20962,1.89919,390.330,34.125,45.068,45.000,0.00,0.10,-272.73,-272.80,-9,998,-7,24.8,27.3,4.7,24.5,28.2,4.9,5.73,1.91,2.7,28.5
2015-07-20 01:36:00,0.0,1.87843,0.00042,385.004,0.162,1.0978,0.0026,139.999,45.000,34324.12786,1.89949,390.276,34.125,45.068,45.000,0.00,0.10,-272.74,-272.80,-9,998,-7,24.8,27.2,4.6,24.5,28.1,4.8,5.73,1.92,2.7,28.5
2015-07-20 01:37:00,0.0,1.87816,0.00064,384.650,0.244,1.1100,0.0084,139.999,45.000,34328.97393,1.89937,389.965,34.126,45.068,45.000,0.00,0.10,-272.74,-272.80,-9,997,-7,24.8,27.7,4.9,24.5,28.4,5.0,5.73,1.92,2.7,28.5
2015-07-20 01:38:00,0.0,1.87789,0.00028,384.980,0.102,1.1175,0.0065,140.001,45.000,34327.13708,1.89934,390.347,34.123,45.068,45.000,0.00,0.10,-272.73,-272.80,-9,998,-7,24.8,27.7,4.9,24.5,28.6,5.1,5.73,1.91,2.7,28.5
2015-07-20 01:39:00,0.0,1.87792,0.00034,385.105,0.134,1.1080,0.0027,140.002,45.000,34326.88712,1.89912,390.434,34.105,45.068,45.000,0.00,0.10,-272.74,-272.80,-9,997,-7,24.8,27.5,4.8,24.5,28.4,5.0,5.73,1.89,2.7,28.5
2015-07-20 01:40:00,0.0,1.87780,0.00047,384.864,0.175,1.1107,0.0046,140.002,45.000,34327.53000,1.89913,390.182,34.088,45.068,45.000,0.00,0.10,-272.73,-272.80,-9,998,-7,24.8,27.6,4.8,24.5,28.4,5.0,5.73,1.88,2.7,28.5
2015-07-20 01:41:00,0.0,1.87751,0.00044,384.817,0.347,1.1136,0.0018,140.002,45.000,34329.32148,1.89881,390.175,34.081,45.068,45.000,0.00,0.10,-272.73,-272.80,-9,997,-7,24.8,27.6,4.8,24.5,28.5,5.1,5.73,1.86,2.7,28.4
2015-07-20 01:42:00,0.0,1.87783,0.00048,384.432,0.433,1.1214,0.0043,139.998,45.000,34328.68086,1.89932,389.815,34.076,45.068,45.000,0.00,0.10,-272.74,-272.80,-9,998,-7,24.8,27.9,5.0,24.5,28.7,5.1,5.73,1.86,2.7,28.4
2015-07-20 01:43:00,0.0,1.87768,0.00071,384.292,0.169,1.1371,0.0062,139.999,45.000,34326.54959,1.89947,389.726,34.117,45.068,45.000,0.00,0.10,-272.74,-272.80,-9,997,-7,24.8,28.4,5.2,24.5,29.1,5.4,5.73,1.86,2.7,28.4
2015-07-20 01:44:00,0.0,1.87734,0.00036,384.655,0.163,1.1404,0.0039,140.003,45.000,34328.95172,1.89924,390.132,34.123,45.068,45.000,0.00,0.10,-272.73,-272.80,-9,998,-7,24.8,28.3,5.2,24.5,29.3,5.4,5.73,1.88,2.7,28.4
2015-07-20 01:45:00,0.0,1.87709,0.00037,384.522,0.123,1.1292,0.0023,140.003,45.000,34330.47082,1.89871,389.936,34.125,45.068,45.000,0.00,0.10,-272.73,-272.80,-9,998,-7,24.8,28.1,5.0,24.5,29.0,5.3,5.73,1.90,2.7,28.4
2015-07-20 01:46:00,0.0,1.87747,0.00040,384.537,0.201,1.1321,0.0024,140.000,45.000,34329.02613,1.89918,389.975,34.128,45.067,45.000,0.00,0.10,-272.74,-272.80,-9,998,-7,24.8,28.1,5.1,24.5,29.0,5.3,5.73,1.92,2.7,28.4
2015-07-20 01:47:00,0.0,1.87724,0.00044,384.320,0.222,1.1344,0.0032,139.998,45.000,34327.97853,1.89898,389.757,34.126,45.067,45.000,0.00,0.10,-272.74,-272.79,-9,997,-7,24.8,28.2,5.2,24.5,29.1,5.3,5.73,1.92,2.7,28.4
2015-07-20 01:48:00,0.0,1.87740,0.00030,384.526,0.125,1.1416,0.0033,140.005,45.000,34328.91145,1.89924,390.009,34.133,45.067,45.000,0.00,0.10,-272.74,-272.79,-9,997,-7,24.8,28.4,5.2,24.5,29.3,5.5,5.73,1.91,2.7,28.4